Location: ????????
(55.3939°N, 37.4780°E)
Time: 05:46:32
(UTC+00:00)

Cosmos 1315 Rocket - Pass Details

Date: 14 April 2026
Orbit: 490 x 510 km, 81.2° (Epoch: 10 May)

Event Time Altitude Azimuth Distance (km) Brightness Sun altitude
Exits shadow 19:41:04 37° 70° (ENE) 796 3.5 -21.1°
Drops below altitude 10° 19:44:01 10° 26° (NNE) 1,725 5.8 -21.3°
Sets 19:46:13 0° 19° (NNE) 2,611 6.9 -21.4°
